Time,TemperatureF,DewpointF,PressureIn,WindDirection,WindDirectionDegrees,WindSpeedMPH,WindSpeedGustMPH,Humidity,HourlyPrecipIn,Conditions,Clouds,dailyrainin,SoftwareType,DateUTC
2013-03-21 00:03:00,62.0,-99.9,29.91,NW,324,2.0,3.0,-999,-99.99,,,-99.99,,2013-03-21 04:03:00,
2013-03-21 00:13:00,62.0,-99.9,29.91,NW,321,2.0,3.0,-999,-99.99,,,-99.99,,2013-03-21 04:13:00,
2013-03-21 00:23:00,62.0,-99.9,29.91,NNW,346,2.0,4.0,-999,-99.99,,,-99.99,,2013-03-21 04:23:00,
2013-03-21 00:33:00,63.0,-99.9,29.91,NW,319,5.0,6.0,-999,-99.99,,,-99.99,,2013-03-21 04:33:00,
2013-03-21 00:43:00,63.0,-99.9,29.91,NNW,330,9.0,12.0,-999,-99.99,,,-99.99,,2013-03-21 04:43:00,
2013-03-21 00:53:00,63.0,-99.9,29.91,NNW,331,13.0,15.0,-999,-99.99,,,-99.99,,2013-03-21 04:53:00,
2013-03-21 01:03:00,62.0,-99.9,29.91,NNW,328,13.0,16.0,-999,-99.99,,,-99.99,,2013-03-21 05:03:00,
2013-03-21 01:13:00,62.0,-99.9,29.92,NNW,328,14.0,17.0,-999,-99.99,,,-99.99,,2013-03-21 05:13:00,
2013-03-21 01:22:00,62.0,-99.9,29.91,NNW,338,15.0,17.0,-999,-99.99,,,-99.99,,2013-03-21 05:22:00,
2013-03-21 01:33:00,62.0,-99.9,29.90,NNW,335,14.0,16.0,-999,-99.99,,,-99.99,,2013-03-21 05:33:00,
2013-03-21 01:44:00,62.0,-99.9,29.90,NNW,338,14.0,16.0,-999,-99.99,,,-99.99,,2013-03-21 05:44:00,
2013-03-21 01:52:00,62.0,-99.9,29.90,NW,324,10.0,15.0,-999,-99.99,,,-99.99,,2013-03-21 05:52:00,
2013-03-21 02:03:00,62.0,-99.9,29.90,NW,326,12.0,15.0,-999,-99.99,,,-99.99,,2013-03-21 06:03:00,
2013-03-21 02:12:00,62.0,-99.9,29.91,NW,326,13.0,15.0,-999,-99.99,,,-99.99,,2013-03-21 06:12:00,
2013-03-21 02:23:00,62.0,-99.9,29.91,NW,324,12.0,14.0,-999,-99.99,,,-99.99,,2013-03-21 06:23:00,
2013-03-21 02:32:00,62.0,-99.9,29.91,NNW,327,13.0,16.0,-999,-99.99,,,-99.99,,2013-03-21 06:32:00,
2013-03-21 02:42:00,62.0,-99.9,29.91,NNW,342,15.0,17.0,-999,-99.99,,,-99.99,,2013-03-21 06:42:00,
2013-03-21 02:52:00,62.0,-99.9,29.89,NNW,336,15.0,17.0,-999,-99.99,,,-99.99,,2013-03-21 06:52:00,
2013-03-21 03:02:00,62.0,-99.9,29.91,NNW,338,17.0,19.0,-999,-99.99,,,-99.99,,2013-03-21 07:02:00,
2013-03-21 03:13:00,62.0,-99.9,29.91,NNW,334,17.0,19.0,-999,-99.99,,,-99.99,,2013-03-21 07:13:00,
2013-03-21 03:22:00,62.0,-99.9,29.91,NNW,344,19.0,21.0,-999,-99.99,,,-99.99,,2013-03-21 07:22:00,
2013-03-21 03:33:00,62.0,-99.9,29.91,NNW,344,18.0,20.0,-999,-99.99,,,-99.99,,2013-03-21 07:33:00,
2013-03-21 03:43:00,62.0,-99.9,29.91,NNW,343,17.0,20.0,-999,-99.99,,,-99.99,,2013-03-21 07:43:00,
2013-03-21 03:53:00,62.0,-99.9,29.91,NNW,343,18.0,21.0,-999,-99.99,,,-99.99,,2013-03-21 07:53:00,
2013-03-21 04:02:00,62.0,-99.9,29.90,NNW,344,18.0,21.0,-999,-99.99,,,-99.99,,2013-03-21 08:02:00,
2013-03-21 04:13:00,62.0,-99.9,29.90,NNW,343,19.0,21.0,-999,-99.99,,,-99.99,,2013-03-21 08:13:00,
2013-03-21 04:23:00,62.0,-99.9,29.90,North,349,20.0,22.0,-999,-99.99,,,-99.99,,2013-03-21 08:23:00,
2013-03-21 04:33:00,62.0,-99.9,29.90,North,349,21.0,23.0,-999,-99.99,,,-99.99,,2013-03-21 08:33:00,
2013-03-21 04:43:00,62.0,-99.9,29.90,North,351,23.0,25.0,-999,-99.99,,,-99.99,,2013-03-21 08:43:00,
2013-03-21 04:52:00,62.0,-99.9,29.89,North,354,21.0,26.0,-999,-99.99,,,-99.99,,2013-03-21 08:52:00,
2013-03-21 05:02:00,62.0,-99.9,29.90,North,3,21.0,25.0,-999,-99.99,,,-99.99,,2013-03-21 09:02:00,
2013-03-21 05:11:00,63.0,-99.9,29.89,North,355,24.0,26.0,-999,-99.99,,,-99.99,,2013-03-21 09:11:00,
2013-03-21 05:22:00,62.0,-99.9,29.90,North,-999,28.0,31.0,-999,-99.99,,,-99.99,,2013-03-21 09:22:00,
2013-03-21 05:33:00,62.0,-99.9,29.90,North,11,27.0,30.0,-999,-99.99,,,-99.99,,2013-03-21 09:33:00,
2013-03-21 05:43:00,62.0,-99.9,29.90,North,9,28.0,30.0,-999,-99.99,,,-99.99,,2013-03-21 09:43:00,
2013-03-21 05:53:00,61.0,-99.9,29.90,North,11,26.0,30.0,-999,-99.99,,,-99.99,,2013-03-21 09:53:00,
2013-03-21 06:03:00,61.0,-99.9,29.90,NNE,17,25.0,30.0,-999,-99.99,,,-99.99,,2013-03-21 10:03:00,
2013-03-21 06:12:00,61.0,-99.9,29.91,NNE,17,26.0,29.0,-999,-99.99,,,-99.99,,2013-03-21 10:12:00,
2013-03-21 06:23:00,61.0,-99.9,29.91,NNE,13,26.0,28.0,-999,-99.99,,,-99.99,,2013-03-21 10:23:00,
2013-03-21 06:34:00,61.0,-99.9,29.91,North,9,26.0,29.0,-999,-99.99,,,-99.99,,2013-03-21 10:34:00,
2013-03-21 06:43:00,61.0,-99.9,29.92,North,10,25.0,29.0,-999,-99.99,,,-99.99,,2013-03-21 10:43:00,
2013-03-21 06:53:00,60.0,-99.9,29.92,NNE,17,22.0,25.0,-999,-99.99,,,-99.99,,2013-03-21 10:53:00,
2013-03-21 07:03:00,60.0,-99.9,29.92,North,8,23.0,25.0,-999,-99.99,,,-99.99,,2013-03-21 11:03:00,
2013-03-21 07:13:00,60.0,-99.9,29.93,North,11,25.0,28.0,-999,-99.99,,,-99.99,,2013-03-21 11:13:00,
2013-03-21 07:23:00,60.0,-99.9,29.93,NNE,19,22.0,26.0,-999,-99.99,,,-99.99,,2013-03-21 11:23:00,
2013-03-21 07:33:00,60.0,-99.9,29.93,NNE,15,21.0,26.0,-999,-99.99,,,-99.99,,2013-03-21 11:33:00,
2013-03-21 07:43:00,60.0,-99.9,29.93,NNE,17,19.0,25.0,-999,-99.99,,,-99.99,,2013-03-21 11:43:00,
2013-03-21 07:53:00,60.0,-99.9,29.94,North,9,19.0,25.0,-999,-99.99,,,-99.99,,2013-03-21 11:53:00,
2013-03-21 08:03:00,60.0,-99.9,29.95,North,9,22.0,26.0,-999,-99.99,,,-99.99,,2013-03-21 12:03:00,
2013-03-21 08:13:00,60.0,-99.9,29.95,North,5,21.0,23.0,-999,-99.99,,,-99.99,,2013-03-21 12:13:00,
2013-03-21 08:22:00,57.0,-99.9,29.95,ENE,63,8.0,20.0,-999,-99.99,,,-99.99,,2013-03-21 12:22:00,
2013-03-21 08:33:00,56.0,-99.9,29.95,ENE,63,9.0,10.0,-999,-99.99,,,-99.99,,2013-03-21 12:33:00,
2013-03-21 08:44:00,55.0,-99.9,29.95,East,81,7.0,11.0,-999,-99.99,,,-99.99,,2013-03-21 12:44:00,
2013-03-21 08:53:00,55.0,-99.9,29.95,ENE,75,7.0,10.0,-999,-99.99,,,-99.99,,2013-03-21 12:53:00,
2013-03-21 09:03:00,56.0,-99.9,29.96,ENE,66,7.0,11.0,-999,-99.99,,,-99.99,,2013-03-21 13:03:00,
2013-03-21 09:12:00,56.0,-99.9,29.96,ENE,59,7.0,11.0,-999,-99.99,,,-99.99,,2013-03-21 13:12:00,
2013-03-21 09:22:00,57.0,-99.9,29.96,NE,51,6.0,9.0,-999,-99.99,,,-99.99,,2013-03-21 13:22:00,
2013-03-21 09:33:00,57.0,-99.9,29.96,NE,49,7.0,11.0,-999,-99.99,,,-99.99,,2013-03-21 13:33:00,
2013-03-21 09:43:00,57.0,-99.9,29.96,ENE,62,6.0,9.0,-999,-99.99,,,-99.99,,2013-03-21 13:43:00,
2013-03-21 09:53:00,57.0,-99.9,29.96,NE,55,6.0,11.0,-999,-99.99,,,-99.99,,2013-03-21 13:53:00,
2013-03-21 10:02:00,58.0,-99.9,29.96,NE,47,8.0,10.0,-999,-99.99,,,-99.99,,2013-03-21 14:02:00,
2013-03-21 10:12:00,59.0,-99.9,29.96,NNE,23,11.0,15.0,-999,-99.99,,,-99.99,,2013-03-21 14:12:00,
2013-03-21 10:22:00,59.0,-99.9,29.97,North,7,18.0,23.0,-999,-99.99,,,-99.99,,2013-03-21 14:22:00,
2013-03-21 10:32:00,59.0,-99.9,29.97,North,7,21.0,24.0,-999,-99.99,,,-99.99,,2013-03-21 14:32:00,
2013-03-21 10:43:00,59.0,-99.9,29.98,North,3,21.0,25.0,-999,-99.99,,,-99.99,,2013-03-21 14:43:00,
2013-03-21 10:52:00,58.0,-99.9,29.98,North,9,18.0,23.0,-999,-99.99,,,-99.99,,2013-03-21 14:52:00,
2013-03-21 11:04:00,58.0,-99.9,29.99,NNE,22,17.0,23.0,-999,-99.99,,,-99.99,,2013-03-21 15:04:00,
2013-03-21 11:13:00,59.0,-99.9,29.99,NNE,16,17.0,23.0,-999,-99.99,,,-99.99,,2013-03-21 15:13:00,
2013-03-21 11:22:00,58.0,-99.9,29.98,NNE,18,19.0,24.0,-999,-99.99,,,-99.99,,2013-03-21 15:22:00,
2013-03-21 11:33:00,58.0,-99.9,30.00,North,3,19.0,23.0,-999,-99.99,,,-99.99,,2013-03-21 15:33:00,
2013-03-21 11:43:00,58.0,-99.9,30.00,North,11,20.0,23.0,-999,-99.99,,,-99.99,,2013-03-21 15:43:00,
2013-03-21 11:53:00,57.0,-99.9,30.01,North,2,19.0,22.0,-999,-99.99,,,-99.99,,2013-03-21 15:53:00,
2013-03-21 12:03:00,57.0,-99.9,30.01,NNE,14,19.0,23.0,-999,-99.99,,,-99.99,,2013-03-21 16:03:00,
2013-03-21 12:13:00,57.0,-99.9,30.01,North,-999,18.0,20.0,-999,-99.99,,,-99.99,,2013-03-21 16:13:00,
2013-03-21 12:23:00,57.0,-99.9,30.01,North,11,16.0,18.0,-999,-99.99,,,-99.99,,2013-03-21 16:23:00,
2013-03-21 12:33:00,57.0,-99.9,30.01,NNE,17,17.0,20.0,-999,-99.99,,,-99.99,,2013-03-21 16:33:00,
2013-03-21 12:43:00,57.0,-99.9,30.01,North,8,17.0,18.0,-999,-99.99,,,-99.99,,2013-03-21 16:43:00,
2013-03-21 12:53:00,57.0,-99.9,30.00,North,8,18.0,19.0,-999,-99.99,,,-99.99,,2013-03-21 16:53:00,
2013-03-21 13:03:00,57.0,-99.9,30.00,North,2,15.0,20.0,-999,-99.99,,,-99.99,,2013-03-21 17:03:00,
2013-03-21 13:12:00,57.0,-99.9,30.00,North,5,15.0,17.0,-999,-99.99,,,-99.99,,2013-03-21 17:12:00,
2013-03-21 13:23:00,57.0,-99.9,29.99,North,1,15.0,17.0,-999,-99.99,,,-99.99,,2013-03-21 17:23:00,
2013-03-21 13:33:00,58.0,-99.9,29.99,North,358,14.0,15.0,-999,-99.99,,,-99.99,,2013-03-21 17:33:00,
2013-03-21 13:43:00,57.0,-99.9,29.99,North,357,14.0,16.0,-999,-99.99,,,-99.99,,2013-03-21 17:43:00,
2013-03-21 13:53:00,57.0,-99.9,29.99,North,356,14.0,16.0,-999,-99.99,,,-99.99,,2013-03-21 17:53:00,
2013-03-21 14:02:00,57.0,-99.9,29.98,North,356,13.0,15.0,-999,-99.99,,,-99.99,,2013-03-21 18:02:00,
2013-03-21 14:12:00,57.0,-99.9,29.98,North,359,13.0,15.0,-999,-99.99,,,-99.99,,2013-03-21 18:12:00,
2013-03-21 14:23:00,57.0,-99.9,29.98,North,2,11.0,15.0,-999,-99.99,,,-99.99,,2013-03-21 18:23:00,
2013-03-21 14:32:00,57.0,-99.9,29.98,North,360,10.0,12.0,-999,-99.99,,,-99.99,,2013-03-21 18:32:00,
2013-03-21 14:43:00,57.0,-99.9,29.97,North,350,10.0,13.0,-999,-99.99,,,-99.99,,2013-03-21 18:43:00,
2013-03-21 14:52:00,57.0,-99.9,29.97,North,358,11.0,13.0,-999,-99.99,,,-99.99,,2013-03-21 18:52:00,
2013-03-21 15:02:00,57.0,-99.9,29.97,North,350,11.0,14.0,-999,-99.99,,,-99.99,,2013-03-21 19:02:00,
2013-03-21 15:12:00,57.0,-99.9,29.96,North,349,10.0,13.0,-999,-99.99,,,-99.99,,2013-03-21 19:12:00,
2013-03-21 15:23:00,57.0,-99.9,29.96,NNW,346,12.0,14.0,-999,-99.99,,,-99.99,,2013-03-21 19:23:00,
2013-03-21 15:32:00,57.0,-99.9,29.96,NNW,334,12.0,15.0,-999,-99.99,,,-99.99,,2013-03-21 19:32:00,
2013-03-21 15:43:00,57.0,-99.9,29.96,NNW,345,13.0,16.0,-999,-99.99,,,-99.99,,2013-03-21 19:43:00,
2013-03-21 15:53:00,57.0,-99.9,29.95,NNW,339,13.0,14.0,-999,-99.99,,,-99.99,,2013-03-21 19:53:00,
2013-03-21 16:02:00,57.0,-99.9,29.95,North,354,13.0,16.0,-999,-99.99,,,-99.99,,2013-03-21 20:02:00,
2013-03-21 16:13:00,57.0,-99.9,29.95,NNW,347,12.0,16.0,-999,-99.99,,,-99.99,,2013-03-21 20:13:00,
2013-03-21 16:23:00,57.0,-99.9,29.94,North,352,14.0,17.0,-999,-99.99,,,-99.99,,2013-03-21 20:23:00,
2013-03-21 16:33:00,57.0,-99.9,29.94,North,350,12.0,15.0,-999,-99.99,,,-99.99,,2013-03-21 20:33:00,
2013-03-21 16:43:00,57.0,-99.9,29.94,North,352,11.0,15.0,-999,-99.99,,,-99.99,,2013-03-21 20:43:00,
2013-03-21 16:53:00,57.0,-99.9,29.94,North,354,10.0,14.0,-999,-99.99,,,-99.99,,2013-03-21 20:53:00,
2013-03-21 17:03:00,57.0,-99.9,29.93,NNW,337,11.0,15.0,-999,-99.99,,,-99.99,,2013-03-21 21:03:00,
2013-03-21 17:12:00,57.0,-99.9,29.93,NNW,348,10.0,14.0,-999,-99.99,,,-99.99,,2013-03-21 21:12:00,
2013-03-21 17:23:00,57.0,-99.9,29.93,NNW,342,12.0,16.0,-999,-99.99,,,-99.99,,2013-03-21 21:23:00,
2013-03-21 17:33:00,57.0,-99.9,29.93,NNW,329,10.0,15.0,-999,-99.99,,,-99.99,,2013-03-21 21:33:00,
2013-03-21 17:43:00,57.0,-99.9,29.93,NNW,343,11.0,15.0,-999,-99.99,,,-99.99,,2013-03-21 21:43:00,
2013-03-21 17:53:00,57.0,-99.9,29.93,NNW,338,12.0,14.0,-999,-99.99,,,-99.99,,2013-03-21 21:53:00,
2013-03-21 18:03:00,57.0,-99.9,29.94,NNW,338,12.0,16.0,-999,-99.99,,,-99.99,,2013-03-21 22:03:00,
2013-03-21 18:13:00,57.0,-99.9,29.94,NNW,337,12.0,16.0,-999,-99.99,,,-99.99,,2013-03-21 22:13:00,
2013-03-21 18:23:00,57.0,-99.9,29.94,NNW,338,13.0,16.0,-999,-99.99,,,-99.99,,2013-03-21 22:23:00,
2013-03-21 18:34:00,57.0,-99.9,29.94,North,352,12.0,16.0,-999,-99.99,,,-99.99,,2013-03-21 22:34:00,
2013-03-21 18:43:00,57.0,-99.9,29.93,NNW,348,15.0,17.0,-999,-99.99,,,-99.99,,2013-03-21 22:43:00,
2013-03-21 18:53:00,57.0,-99.9,29.93,NNW,339,13.0,15.0,-999,-99.99,,,-99.99,,2013-03-21 22:53:00,
2013-03-21 19:03:00,57.0,-99.9,29.93,NNW,343,12.0,14.0,-999,-99.99,,,-99.99,,2013-03-21 23:03:00,
2013-03-21 19:12:00,57.0,-99.9,29.93,NNW,344,10.0,14.0,-999,-99.99,,,-99.99,,2013-03-21 23:12:00,
2013-03-21 19:22:00,58.0,-99.9,29.93,NNW,334,9.0,12.0,-999,-99.99,,,-99.99,,2013-03-21 23:22:00,
2013-03-21 19:33:00,58.0,-99.9,29.93,NNW,345,11.0,13.0,-999,-99.99,,,-99.99,,2013-03-21 23:33:00,
2013-03-21 19:43:00,58.0,-99.9,29.94,NNW,346,11.0,13.0,-999,-99.99,,,-99.99,,2013-03-21 23:43:00,
2013-03-21 19:53:00,58.0,-99.9,29.94,NNW,338,8.0,13.0,-999,-99.99,,,-99.99,,2013-03-21 23:53:00,
2013-03-21 20:03:00,58.0,-99.9,29.94,North,353,11.0,14.0,-999,-99.99,,,-99.99,,2013-03-22 00:03:00,
2013-03-21 20:13:00,58.0,-99.9,29.94,NNW,338,10.0,12.0,-999,-99.99,,,-99.99,,2013-03-22 00:13:00,
2013-03-21 20:22:00,58.0,-99.9,29.94,NNW,334,7.0,10.0,-999,-99.99,,,-99.99,,2013-03-22 00:22:00,
2013-03-21 20:32:00,58.0,-99.9,29.94,NNW,340,7.0,9.0,-999,-99.99,,,-99.99,,2013-03-22 00:32:00,
2013-03-21 20:42:00,58.0,-99.9,29.94,NW,317,6.0,10.0,-999,-99.99,,,-99.99,,2013-03-22 00:42:00,
2013-03-21 20:52:00,58.0,-99.9,29.94,NNW,330,5.0,9.0,-999,-99.99,,,-99.99,,2013-03-22 00:52:00,
2013-03-21 21:03:00,58.0,-99.9,29.94,NW,315,6.0,7.0,-999,-99.99,,,-99.99,,2013-03-22 01:03:00,
2013-03-21 21:12:00,58.0,-99.9,29.94,NW,315,6.0,9.0,-999,-99.99,,,-99.99,,2013-03-22 01:12:00,
2013-03-21 21:22:00,58.0,-99.9,29.94,NNW,339,7.0,9.0,-999,-99.99,,,-99.99,,2013-03-22 01:22:00,
2013-03-21 21:33:00,58.0,-99.9,29.94,NW,318,6.0,9.0,-999,-99.99,,,-99.99,,2013-03-22 01:33:00,
2013-03-21 21:43:00,58.0,-99.9,29.95,NNW,328,7.0,9.0,-999,-99.99,,,-99.99,,2013-03-22 01:43:00,
2013-03-21 21:53:00,58.0,-99.9,29.95,NW,314,5.0,7.0,-999,-99.99,,,-99.99,,2013-03-22 01:53:00,
2013-03-21 22:03:00,58.0,-99.9,29.95,NW,310,6.0,7.0,-999,-99.99,,,-99.99,,2013-03-22 02:03:00,
2013-03-21 22:12:00,58.0,-99.9,29.95,NNW,335,5.0,6.0,-999,-99.99,,,-99.99,,2013-03-22 02:12:00,
2013-03-21 22:22:00,58.0,-99.9,29.95,NW,314,4.0,6.0,-999,-99.99,,,-99.99,,2013-03-22 02:22:00,
2013-03-21 22:32:00,58.0,-99.9,29.95,NW,316,4.0,5.0,-999,-99.99,,,-99.99,,2013-03-22 02:32:00,
2013-03-21 22:43:00,58.0,-99.9,29.95,West,281,5.0,6.0,-999,-99.99,,,-99.99,,2013-03-22 02:43:00,
2013-03-21 22:53:00,58.0,-99.9,29.95,NW,318,3.0,6.0,-999,-99.99,,,-99.99,,2013-03-22 02:53:00,
2013-03-21 23:02:00,58.0,-99.9,29.95,NW,311,3.0,4.0,-999,-99.99,,,-99.99,,2013-03-22 03:02:00,
2013-03-21 23:12:00,58.0,-99.9,29.95,North,357,1.0,4.0,-999,-99.99,,,-99.99,,2013-03-22 03:12:00,
2013-03-21 23:22:00,58.0,-99.9,29.96,NW,306,2.0,4.0,-999,-99.99,,,-99.99,,2013-03-22 03:22:00,
2013-03-21 23:33:00,59.0,-99.9,29.96,WNW,303,3.0,5.0,-999,-99.99,,,-99.99,,2013-03-22 03:33:00,
2013-03-21 23:43:00,59.0,-99.9,29.96,NW,319,4.0,5.0,-999,-99.99,,,-99.99,,2013-03-22 03:43:00,
2013-03-21 23:53:00,59.0,-99.9,29.96,WNW,287,4.0,6.0,-999,-99.99,,,-99.99,,2013-03-22 03:53:00,